Plainview, TX

9:35 PM CDT on March 24, 2017 (GMT -0500)
Hale County

Weather History for KPVW - March, 2013

Change the Weather History Date:

Thursday, March 14, 2013

  Actual Average Record
Temperature  
Mean Temperature 58 °F -  
Max Temperature 77 °F 67 °F 86 °F (1916)
Min Temperature 39 °F 35 °F 12 °F (1950)
Degree Days  
Heating Degree Days 7    
Growing Degree Days 8 (Base 50)    
Moisture  
Dew Point 29 °F    
Average Humidity 38    
Maximum Humidity 67    
Minimum Humidity 15    
Precipitation  
Precipitation 0.00 in - - ()
Sea Level Pressure  
Sea Level Pressure 30.19 in    
Wind  
Wind Speed 6 mph (WSW)    
Max Wind Speed 14 mph    
Max Gust Speed 22 mph    
Visibility 10 miles    
Events      
Averages and records for this station are not official NWS values.
T = Trace of Precipitation, MM = Missing Value Source: NWS Daily Summary

Daily Weather History Graph

Daily Weather History Graph

Search for Another Location

Airport or City:

Trip Planner

Search our weather history database for the weather conditions in past years. The results will help you decide how hot, cold, wet, or windy it might be!

Date:

Astronomy

Mar. 14, 2013 Rise Set
Actual Time 7:58 AM CDT 7:54 PM CDT
Civil Twilight 7:33 AM CDT 8:19 PM CDT
Nautical Twilight 7:04 AM CDT 8:48 PM CDT
Astronomical Twilight 6:35 AM CDT 9:17 PM CDT
Moon 9:22 AM CDT (3/14) 11:01 PM CDT (3/14)
Length of Visible Light 12h 45m
Length of Day
11h 55m
Waxing Crescent, 9% of the Moon is Illuminated
Mar 14
Waxing Crescent
Mar 19
First Quarter
Mar 27
Full
Apr 2
Last Quarter
Apr 10
New

Hourly Weather History & Observations

Time (CDT) Temp. Windchill Dew Point Humidity Pressure Visibility Wind Dir Wind Speed Gust Speed Precip Events Conditions
12:15 AM 47.3 °F - 28.0 °F 47% 30.26 in 10.0 mi South 6.9 mph - N/A   Clear
12:35 AM 43.7 °F 39.7 °F 26.6 °F 51% 30.26 in 10.0 mi South 6.9 mph - N/A   Clear
1:15 AM 44.2 °F 39.7 °F 26.4 °F 50% 30.25 in 10.0 mi South 8.1 mph - N/A   Clear
1:55 AM 44.2 °F 40.3 °F 26.4 °F 50% 30.24 in 10.0 mi South 6.9 mph - N/A   Clear
2:15 AM 42.3 °F 38.6 °F 27.1 °F 55% 30.24 in 10.0 mi South 5.8 mph - N/A   Clear
2:35 AM 41.0 °F 38.0 °F 26.6 °F 57% 30.23 in 10.0 mi South 4.6 mph - N/A   Clear
2:55 AM 42.3 °F 38.6 °F 26.6 °F 54% 30.23 in 10.0 mi South 5.8 mph - N/A   Clear
3:15 AM 43.0 °F 39.5 °F 26.6 °F 52% 30.23 in 10.0 mi South 5.8 mph - N/A   Clear
3:35 AM 42.8 °F 38.6 °F 26.8 °F 53% 30.23 in 10.0 mi South 6.9 mph - N/A   Clear
3:55 AM 42.6 °F 38.4 °F 26.8 °F 54% 30.22 in 10.0 mi South 6.9 mph - N/A   Clear
4:15 AM 41.0 °F 37.1 °F 27.3 °F 58% 30.22 in 10.0 mi South 5.8 mph - N/A   Clear
4:35 AM 41.0 °F - 26.8 °F 57% 30.22 in 10.0 mi Calm Calm - N/A   Clear
4:55 AM 41.7 °F 39.8 °F 27.3 °F 57% 30.22 in 10.0 mi SW 3.5 mph - N/A   Clear
5:15 AM 42.3 °F 40.5 °F 27.0 °F 55% 30.22 in 10.0 mi SW 3.5 mph - N/A   Clear
5:35 AM 42.3 °F 39.4 °F 27.1 °F 55% 30.21 in 10.0 mi SSW 4.6 mph - N/A   Clear
5:55 AM 41.0 °F 36.4 °F 27.0 °F 57% 30.21 in 10.0 mi SSW 6.9 mph - N/A   Clear
6:15 AM 40.8 °F 37.8 °F 27.5 °F 59% 30.21 in 10.0 mi SSW 4.6 mph - N/A   Clear
6:35 AM 40.5 °F - 27.5 °F 60% 30.21 in 10.0 mi Calm Calm - N/A   Clear
6:55 AM 41.0 °F 38.0 °F 27.3 °F 58% 30.21 in 10.0 mi SW 4.6 mph - N/A   Clear
7:15 AM 42.3 °F 37.9 °F 28.0 °F 57% 30.21 in 10.0 mi SW 6.9 mph - N/A   Clear
7:35 AM 43.2 °F 40.5 °F 28.4 °F 56% 30.21 in 10.0 mi SW 4.6 mph - N/A   Clear
7:55 AM 41.0 °F 37.1 °F 28.4 °F 61% 30.22 in 10.0 mi SW 5.8 mph - N/A   Clear
8:15 AM 39.6 °F - 29.3 °F 67% 30.22 in 10.0 mi Calm Calm - N/A   Clear
8:35 AM 40.5 °F 38.4 °F 29.7 °F 65% 30.22 in 10.0 mi WSW 3.5 mph - N/A   Clear
8:55 AM 42.8 °F 41.1 °F 30.7 °F 62% 30.23 in 10.0 mi SW 3.5 mph - N/A   Clear
9:15 AM 48.2 °F - 31.3 °F 52% 30.23 in 10.0 mi WSW 3.5 mph - N/A   Clear
9:35 AM 50.0 °F - 30.9 °F 48% 30.23 in 10.0 mi WSW 6.9 mph - N/A   Clear
9:55 AM 52.3 °F - 31.6 °F 45% 30.24 in 10.0 mi SW 9.2 mph - N/A   Clear
10:15 AM 54.9 °F - 32.0 °F 42% 30.24 in 10.0 mi SW 11.5 mph 16.1 mph N/A   Clear
10:35 AM 57.4 °F - 32.4 °F 39% 30.24 in 10.0 mi SW 9.2 mph - N/A   Clear
10:55 AM 57.9 °F - 32.0 °F 37% 30.24 in 10.0 mi SW 12.7 mph 18.4 mph N/A   Clear
11:15 AM 60.3 °F - 32.0 °F 34% 30.23 in 10.0 mi WSW 13.8 mph - N/A   Clear
11:35 AM 62.6 °F - 31.3 °F 31% 30.23 in 10.0 mi WSW 13.8 mph - N/A   Clear
11:55 AM 63.0 °F - 29.1 °F 28% 30.22 in 10.0 mi WSW 11.5 mph - N/A   Clear
12:15 PM 64.4 °F - 29.8 °F 27% 30.23 in 10.0 mi West 12.7 mph - N/A   Clear
12:35 PM 64.9 °F - 29.7 °F 27% 30.22 in 10.0 mi West 10.4 mph - N/A   Clear
12:55 PM 67.5 °F - 30.7 °F 25% 30.22 in 10.0 mi WSW 9.2 mph - N/A   Clear
1:15 PM 69.8 °F - 31.5 °F 24% 30.22 in 10.0 mi WSW 9.2 mph - N/A   Clear
1:35 PM 69.4 °F - 31.6 °F 25% 30.21 in 10.0 mi WSW 6.9 mph - N/A   Clear
1:55 PM 70.0 °F - 30.9 °F 24% 30.21 in 10.0 mi West 9.2 mph - N/A   Clear
2:15 PM 70.0 °F - 31.3 °F 24% 30.20 in 10.0 mi Calm Calm - N/A   Clear
2:35 PM 71.6 °F - 30.6 °F 22% 30.18 in 10.0 mi SW 8.1 mph - N/A   Clear
2:55 PM 75.2 °F - 32.0 °F 21% 30.17 in 10.0 mi West 4.6 mph - N/A   Clear
3:15 PM 75.2 °F - 29.7 °F 19% 30.16 in 10.0 mi SW 9.2 mph - N/A   Clear
3:35 PM 75.2 °F - 27.0 °F 17% 30.15 in 10.0 mi WSW 5.8 mph - N/A   Clear
3:55 PM 76.3 °F - 26.2 °F 16% 30.15 in 10.0 mi WSW 12.7 mph 18.4 mph N/A   Clear
4:15 PM 77.4 °F - 26.4 °F 15% 30.14 in 10.0 mi West 12.7 mph 21.9 mph N/A   Clear
4:35 PM 76.6 °F - 26.1 °F 15% 30.14 in 10.0 mi West 11.5 mph 17.3 mph N/A   Clear
4:55 PM 77.5 °F - 27.0 °F 16% 30.14 in 10.0 mi West 12.7 mph - N/A   Clear
5:15 PM 75.7 °F - 26.2 °F 16% 30.13 in 10.0 mi West 5.8 mph - N/A   Clear
5:35 PM 75.7 °F - 27.1 °F 17% 30.13 in 10.0 mi West 9.2 mph - N/A   Clear
5:55 PM 75.2 °F - 27.5 °F 17% 30.13 in 10.0 mi WNW 8.1 mph - N/A   Clear
6:15 PM 75.2 °F - 26.6 °F 17% 30.12 in 10.0 mi West 6.9 mph - N/A   Clear
6:35 PM 75.2 °F - 26.6 °F 17% 30.12 in 10.0 mi WNW 5.8 mph - N/A   Clear
6:55 PM 75.2 °F - 27.7 °F 17% 30.12 in 10.0 mi West 8.1 mph - N/A   Clear
7:15 PM 75.2 °F - 29.8 °F 19% 30.13 in 10.0 mi WNW 6.9 mph - N/A   Clear
7:35 PM 70.0 °F - 30.2 °F 23% 30.13 in 10.0 mi NW 4.6 mph - N/A   Clear
7:55 PM 70.0 °F - 30.4 °F 23% 30.13 in 10.0 mi NNW 4.6 mph - N/A   Clear
8:15 PM 70.0 °F - 30.9 °F 24% 30.13 in 10.0 mi North 3.5 mph - N/A   Clear
8:35 PM 65.7 °F - 30.6 °F 27% 30.13 in 10.0 mi NNW 3.5 mph - N/A   Clear
8:55 PM 64.9 °F - 30.7 °F 28% 30.13 in 10.0 mi North 3.5 mph - N/A   Clear
9:15 PM 62.8 °F - 30.2 °F 29% 30.13 in 10.0 mi North 5.8 mph - N/A   Clear
9:35 PM 61.7 °F - 29.7 °F 30% 30.14 in 10.0 mi North 4.6 mph - N/A   Clear
9:55 PM 59.9 °F - 30.0 °F 32% 30.14 in 10.0 mi North 5.8 mph - N/A   Clear
10:15 PM 57.4 °F - 30.7 °F 36% 30.15 in 10.0 mi North 3.5 mph - N/A   Clear
10:35 PM 54.9 °F - 32.4 °F 42% 30.15 in 10.0 mi North 4.6 mph - N/A   Clear
10:55 PM 56.5 °F - 31.6 °F 39% 30.15 in 10.0 mi NW 4.6 mph - N/A   Clear
11:15 PM 51.1 °F - 32.0 °F 48% 30.15 in 10.0 mi NNW 5.8 mph - N/A   Clear
11:35 PM 50.0 °F - 33.8 °F 54% 30.15 in 10.0 mi Calm Calm - N/A   Clear
11:55 PM 50.0 °F - 32.2 °F 50% 30.15 in 10.0 mi Calm Calm - N/A   Clear